map of THR home
THR - Airport
Location
City:  Tehran, Tehran, Iran
Near (Alt.):Teheran
Name:Mehrabad International Airport
Old (Alt.):Qualeh Morgeh
ICAO:OIII
IATA:THR

Details
Type:Airport (Aerodrome, Airfield)
Use:Public/Civil, Military, International (customs port of entry)
Latitude:3541'21"N (35.689167)
Longitude:5118'48"E (51.313416)
Datum:WGS 1984
Elevation:3962 ft (1208 m)
Variation:4.79E (WMM2015 magnetic declination)
0.06 annual change
Runways:3
Longest:13248 × 197 ft (4038 × 60 m), paved

Time
Time Zone:UTC+3:30 (DST+4:30)
Local Time:

Weather
METAR:OIII 180530Z 27012KT 9999 FEW035 00/M03 Q1013 A2992
TAF:OIII 172300Z 1800/1906 27012KT 7000 SCT035 BKN100
TEMPO 1810/1815 27020KT 5000 SN/RA FEW030CB SCT035 BKN090

Related Locations
Nearby:
Farthest:GMR: 11488 mi / 18487 km
Mangareva [Totegegie], Gambier Islands, PF

Find:

   beyond  
but within

Other Information
Maps:
NOTAMs:
Links:
Sources:

  
  • flag of Iran
  

Sectional Chart

Flight Planning
at skyvector.com

Satellite Image

Google Maps Satellite view

 

Copyright © 2004-2019 Karl L. Swartz. All rights reserved.
The Great Circle Mapper name and logo are trademarks of the Great Circle Mapper.
All other trademarks mentioned herein belong to their respective owners.
Please see credits for attibutions and further copyright information.

  Follow gcmap on Facebook Follow gcmap on Twitter Follow gcmap on Google+ GCmap on LinkedIn

hCard Microformat

Geo Microformat